Theta_e
289 289 289 288 288 279 282 283 282 283 278 286 285 284 284 284 283 283 283 283 284 282 281 281 281 281 281 281 281 282 282 282 282 282 283 284 284 286 287 288 290 293 304 310
284 288 284 284 285 283 281 282 282 284 284 284 284 284 283 282 282 282 282 283 282 281 281 280 281 281 281 281 281 282 282 282 282 283 283 284 285 286 288 289 291 292 304 311
287 288 288 285 282 281 276 271 277 279 282 279 282 282 282 282 282 282 283 282 281 281 280 280 280 281 281 282 283 283 283 283 283 283 284 284 285 287 289 290 293 294 304 310
287 287 291 288 276 277 280 278 274 275 280 281 282 282 281 283 283 282 281 281 281 280 280 280 280 281 282 283 284 285 284 283 284 284 284 285 286 288 290 291 293 296 305 309
285 286 290 288 284 281 279 280 273 277 277 282 281 281 283 284 282 280 280 280 280 280 280 280 281 281 283 287 288 287 285 284 284 284 285 286 288 289 291 292 294 299 304 309
286 286 290 286 287 284 281 281 282 282 278 280 281 282 283 282 281 280 280 280 279 280 280 280 282 283 287 291 289 288 285 285 285 286 286 288 289 291 292 293 296 300 306 310
286 287 288 287 285 284 285 286 285 283 282 282 278 281 281 280 281 280 280 279 280 280 279 280 282 284 287 290 290 287 286 286 287 288 288 290 292 292 293 294 299 301 307 312
285 285 289 287 285 286 286 286 285 283 282 281 281 282 280 280 280 280 280 280 280 279 279 281 283 284 286 290 291 288 288 288 288 290 291 294 293 294 294 295 300 304 309 315
289 290 288 288 288 288 287 285 284 283 282 281 281 282 281 279 280 279 279 279 280 279 279 282 283 285 290 295 293 290 289 290 290 292 295 294 294 295 295 302 301 307 311 315
286 289 286 288 287 287 286 286 284 283 282 281 280 282 281 279 280 278 279 279 279 279 280 282 283 285 294 296 293 291 291 293 293 296 295 295 294 294 301 304 306 308 312 315
283 285 287 288 288 287 286 285 284 284 282 281 280 282 281 279 279 279 278 280 280 279 280 281 283 286 292 296 297 295 294 293 296 296 295 295 296 293 299 304 308 310 314 314
290 289 287 287 287 286 285 285 284 283 282 281 280 281 282 280 281 279 279 280 281 280 281 282 283 286 291 295 297 297 297 296 296 296 296 300 302 299 298 302 309 311 314 314
290 288 288 287 286 286 285 284 284 283 282 281 281 281 282 281 281 281 279 280 281 280 281 282 283 286 290 294 298 299 298 299 299 300 300 296 303 305 301 307 312 311 313 314
288 288 287 288 287 286 285 284 284 283 282 282 281 281 282 282 281 281 280 280 282 281 281 284 285 289 291 293 297 299 300 301 299 301 303 301 305 306 307 311 313 313 313 314
289 288 287 287 286 286 285 284 284 283 283 282 282 281 281 282 282 280 281 280 282 283 280 283 283 285 290 294 299 300 303 302 304 305 304 305 306 308 310 312 313 313 313 312
288 287 287 286 286 285 284 284 283 283 282 282 281 281 281 282 282 281 281 282 280 281 281 282 284 285 288 289 293 296 298 299 300 302 305 307 308 310 313 313 314 314 314 313
286 285 287 287 286 284 284 283 283 282 282 281 281 281 281 281 282 283 281 282 281 281 281 283 282 286 287 289 292 296 298 299 300 302 305 308 311 313 314 313 314 312 312 311
287 287 287 286 285 284 283 283 282 282 281 281 280 280 281 281 281 281 282 281 283 283 281 283 283 284 287 288 291 292 294 297 300 301 303 305 308 312 312 312 312 311 310 309
286 287 286 285 284 283 283 282 282 281 281 281 280 280 280 280 281 281 282 282 281 282 281 282 284 284 286 287 289 291 292 296 298 300 302 301 302 304 306 309 311 312 311 311
287 286 285 284 283 283 283 282 282 281 281 280 280 280 280 280 281 281 282 281 280 279 280 282 284 283 285 286 287 289 291 291 293 296 298 297 298 301 304 305 307 308 309 309
286 286 284 284 283 283 282 282 282 281 280 280 279 279 280 280 280 281 281 282 281 280 281 282 283 281 284 285 287 287 288 289 291 292 294 297 300 301 300 302 303 304 306 307
286 285 284 283 283 283 282 282 281 280 280 280 279 279 280 281 281 280 280 280 280 280 281 282 280 281 284 285 286 286 287 288 289 290 291 293 295 296 298 300 301 302 304 305
285 284 284 283 283 282 282 281 281 280 280 279 280 280 280 280 280 280 280 280 280 280 281 281 280 281 282 284 285 285 285 286 288 289 290 290 291 294 296 297 298 299 300 302
284 283 283 283 282 282 281 281 281 280 280 279 280 280 280 280 280 279 279 279 280 280 281 281 281 281 282 283 284 284 284 285 285 287 288 289 290 291 293 295 296 298 298 299
284 283 283 283 282 282 281 281 281 280 280 280 280 280 280 279 279 279 279 280 280 280 281 281 281 281 282 282 283 283 284 284 283 284 286 287 288 289 290 292 293 295 296 297
283 283 283 282 282 282 282 281 281 281 280 280 280 280 280 279 279 279 279 280 280 280 280 280 280 281 281 281 282 282 283 284 284 283 284 286 286 287 289 290 291 292 293 294
283 283 282 282 282 282 281 281 281 281 281 280 280 280 280 279 279 279 279 279 280 280 280 280 280 280 280 280 281 282 282 283 283 283 284 285 286 286 288 289 290 290 291 292
Wind_Speed
14 20 17 19 18 9 12 11 6 8 7 24 25 24 36 48 52 52 52 54 53 56 56 54 49 45 42 40 34 32 29 31 36 35 33 34 35 36 37 41 42 43 45 41
7 6 6 9 13 10 13 12 14 25 25 18 34 36 37 42 47 49 53 58 60 58 56 55 51 48 43 42 36 26 31 30 31 32 32 34 34 36 34 42 40 43 46 42
6 8 12 5 8 8 3 4 6 5 10 7 20 28 39 44 46 47 56 61 61 58 56 57 54 52 48 42 31 25 25 29 28 30 32 34 32 33 34 39 37 45 48 43
5 9 5 6 3 5 10 8 7 6 12 18 25 36 42 38 38 52 59 60 60 58 59 58 56 54 49 40 30 21 21 27 27 29 30 32 32 34 33 36 38 44 47 42
3 2 10 2 4 4 4 8 4 7 9 26 29 28 25 25 49 53 58 59 57 56 56 56 54 52 46 34 18 14 18 24 25 28 29 30 32 34 33 36 34 38 44 41
2 2 5 5 3 6 9 5 9 11 12 16 35 15 16 51 59 60 62 62 61 59 55 54 56 50 33 21 5 10 16 22 24 26 28 30 32 33 32 33 36 35 32 40
6 6 10 6 8 8 4 6 8 9 17 17 7 20 45 51 54 55 57 59 59 57 52 52 52 44 26 12 5 8 15 19 22 25 29 29 29 30 31 30 32 39 33 33
3 3 9 11 5 4 4 14 17 17 20 21 30 43 41 47 54 57 59 63 62 60 59 54 51 42 28 13 5 11 17 19 23 24 30 21 27 26 27 32 33 35 39 37
10 7 1 17 7 11 13 17 15 19 22 24 31 42 44 46 51 54 54 57 58 57 55 54 55 43 30 14 6 15 22 22 28 31 17 20 24 26 35 27 36 33 36 43
3 3 9 16 12 14 12 15 19 20 24 25 29 39 44 43 50 48 54 56 58 56 54 56 55 45 29 18 10 15 21 22 31 20 21 19 21 29 36 22 36 38 36 41
7 17 25 26 15 7 12 14 18 21 23 26 28 36 43 43 47 48 47 56 55 55 52 54 55 49 30 15 11 11 14 20 22 21 21 23 22 36 44 24 31 36 39 43
7 9 5 3 5 9 12 15 19 22 24 25 26 33 40 44 45 46 48 54 56 54 56 57 56 54 40 26 15 13 11 14 15 16 18 25 18 18 36 30 25 33 33 40
4 8 8 6 9 11 12 18 20 21 22 26 28 31 37 42 42 45 48 52 53 54 56 56 56 56 47 31 22 15 12 12 18 18 16 26 23 20 38 28 35 41 34 34
25 18 13 16 6 9 15 17 18 19 21 24 28 30 34 39 42 45 48 50 50 51 55 58 60 59 54 42 31 19 11 10 16 21 19 24 25 28 28 30 33 40 41 36
28 26 22 17 15 12 14 15 16 17 20 23 26 30 33 37 41 43 45 48 48 51 51 54 57 55 51 46 36 24 4 2 9 16 21 27 28 34 35 37 37 36 34 31
17 23 23 20 14 12 12 12 15 17 19 23 25 28 31 33 38 40 42 45 49 53 55 54 54 53 48 47 38 33 28 20 11 18 27 29 32 32 32 30 28 29 30 31
13 21 19 17 11 8 8 10 12 15 18 20 23 25 28 32 33 38 42 42 44 45 49 50 50 52 48 47 43 36 30 26 21 15 12 20 28 29 28 27 28 29 30 29
19 13 11 9 8 5 5 7 10 12 15 19 22 24 26 29 31 34 38 41 41 42 48 47 46 47 47 44 41 36 30 25 21 17 11 9 15 21 24 26 26 26 24 24
26 15 11 9 6 4 4 6 9 11 14 17 19 22 23 25 28 29 32 36 42 43 48 45 43 45 44 43 39 35 32 25 21 16 11 9 6 12 19 22 21 21 22 22
28 20 14 9 5 3 4 6 8 10 13 16 17 19 22 23 25 27 29 32 35 35 39 41 40 43 42 41 37 32 31 27 21 15 13 10 8 6 9 12 16 19 19 19
26 20 15 10 7 4 4 5 7 10 13 15 16 17 20 21 22 24 28 31 33 33 36 36 39 41 40 38 35 31 29 26 22 19 13 10 8 4 3 6 9 12 14 15
25 20 16 12 8 5 3 4 7 10 11 12 12 13 16 20 22 23 22 25 28 30 33 34 35 35 36 35 33 31 28 26 23 18 14 10 5 2 3 5 7 10 12 14
24 20 17 13 8 4 2 4 6 8 9 9 10 12 15 17 19 23 26 26 26 27 28 30 30 31 31 31 31 30 27 23 22 19 15 11 7 2 2 6 8 10 12 15
24 21 16 12 8 4 1 2 5 8 8 8 9 11 15 17 16 17 18 20 22 24 26 27 28 28 29 29 28 27 26 23 20 18 14 11 7 4 1 5 8 11 13 15
23 20 16 11 8 4 2 1 3 5 5 6 7 9 10 13 16 18 18 19 21 23 24 24 25 27 28 28 28 26 25 23 20 17 14 10 7 5 2 4 7 9 11 14
23 19 14 12 9 7 6 4 2 4 4 3 5 7 8 10 12 13 16 17 19 21 22 24 25 25 26 27 26 25 24 22 20 17 13 10 8 6 4 4 7 10 12 14
21 19 17 14 10 9 7 5 3 2 2 3 4 6 8 9 10 12 14 15 17 19 20 21 23 24 24 25 25 24 23 21 18 17 14 11 8 6 6 6 7 9 12 14
Wind_Direction
257 261 270 263 266 188 197 221 205 267 266 294 298 303 305 310 313 313 313 317 317 318 318 317 314 311 306 301 294 288 271 253 244 237 232 230 231 225 226 221 218 211 203 193
282 276 228 253 245 217 225 250 255 264 276 275 284 304 304 310 314 313 315 317 319 319 319 319 317 314 310 307 298 282 262 250 238 231 224 223 226 218 221 219 217 210 203 192
271 313 307 307 230 197 211 217 187 263 265 303 305 307 311 314 311 310 316 317 317 319 319 319 319 317 313 314 308 283 251 236 231 221 216 217 220 211 217 213 213 207 203 195
285 323 340 244 220 177 205 233 218 294 284 281 289 298 304 317 315 318 317 317 319 322 321 322 323 326 324 319 305 276 241 222 218 207 208 213 210 206 213 210 211 200 199 194
299 243 280 277 232 197 135 286 205 210 261 291 308 310 308 335 325 319 317 320 321 323 324 325 328 331 329 328 300 239 218 205 204 201 204 205 201 200 208 207 209 202 202 200
346 273 267 232 200 165 128 297 199 237 269 320 332 335 320 329 334 328 329 327 327 330 332 334 342 342 347 347 275 215 197 194 194 193 198 194 194 198 205 210 200 208 196 198
219 256 275 242 159 159 39 267 258 318 341 329 305 291 307 324 330 333 331 331 335 335 336 341 348 356 353 358 269 188 177 180 184 189 189 184 192 197 203 202 202 197 200 195
195 260 292 172 143 160 237 320 321 332 336 324 318 321 325 331 336 338 339 341 343 339 341 350 353 355 2 19 248 181 173 172 176 180 172 184 190 196 193 192 200 198 188 190
193 227 196 188 229 285 293 307 329 333 335 332 331 332 335 335 341 341 339 340 345 344 346 353 5 9 22 66 170 162 156 167 166 164 168 179 191 190 177 192 194 198 196 185
13 277 249 265 252 289 296 316 327 334 335 342 337 336 337 340 347 343 348 344 347 350 352 356 6 17 33 75 105 143 158 155 159 159 170 179 189 184 182 188 199 195 197 184
262 279 274 276 268 268 304 317 327 335 341 345 344 340 342 344 351 351 347 357 354 354 354 359 8 24 48 69 115 137 152 164 164 173 174 172 177 182 196 202 194 198 198 197
229 232 220 217 235 296 310 325 339 340 344 348 350 345 347 353 358 354 358 4 2 2 3 8 12 26 41 64 114 139 150 162 182 182 181 171 175 193 203 211 206 208 207 208
267 208 217 249 285 299 316 331 337 345 345 347 354 353 352 351 1 2 7 9 10 8 7 11 13 27 38 51 68 103 156 174 183 184 184 189 193 203 196 214 193 207 204 214
238 245 264 268 270 304 318 325 333 342 344 350 354 356 355 354 359 9 8 10 12 15 13 21 22 24 30 40 56 73 96 164 196 192 183 184 191 197 207 209 199 205 218 227
236 240 249 262 284 300 306 320 331 343 343 350 355 357 359 357 0 6 8 10 15 16 14 21 20 24 29 32 40 46 12 73 173 190 214 229 220 206 204 203 202 205 208 216
228 231 240 253 263 281 300 320 335 341 348 352 356 359 360 2 2 4 10 10 14 17 14 19 20 19 25 27 33 49 67 89 132 196 201 193 200 204 202 201 197 206 207 207
212 209 219 232 247 267 298 322 333 341 347 350 356 359 1 3 7 3 6 11 13 19 17 16 18 17 19 27 23 30 43 54 70 99 159 171 179 191 188 186 190 190 188 187
212 201 196 219 237 257 299 323 334 345 346 352 355 359 3 4 6 6 3 5 11 14 19 14 17 19 17 21 22 24 31 41 54 65 82 121 159 177 185 183 185 181 179 181
195 201 208 223 229 255 304 328 341 348 348 352 355 358 0 5 7 8 7 6 9 12 10 10 11 18 18 16 19 21 22 26 41 50 59 69 114 162 173 176 180 186 187 189
196 200 208 214 220 252 302 331 345 344 347 350 353 356 1 6 9 6 8 13 11 10 3 6 11 13 13 15 12 21 21 22 29 37 51 67 95 137 163 174 181 184 187 191
183 190 199 198 201 227 275 325 343 341 349 352 352 358 1 3 13 10 7 9 8 8 7 6 13 7 9 10 9 14 23 21 19 27 37 47 46 61 143 171 190 193 191 189
180 187 188 192 195 214 271 329 341 347 344 354 351 1 6 7 6 11 16 8 5 8 5 6 13 6 6 4 11 10 14 19 17 20 30 37 43 75 148 170 197 197 201 197
180 180 184 186 185 196 259 331 337 345 354 356 356 5 14 14 4 3 5 8 6 8 6 6 9 7 9 5 9 12 10 17 17 14 15 25 33 41 160 181 193 195 197 195
176 179 179 182 180 173 227 344 352 7 2 360 9 10 8 4 15 10 7 3 6 8 8 6 6 9 7 11 11 12 10 13 22 16 11 13 17 32 116 178 184 180 181 184
178 177 178 178 174 176 190 91 36 26 18 18 11 13 15 4 0 3 3 5 6 6 9 8 7 9 10 11 12 11 12 11 17 18 18 16 27 40 95 153 163 172 177 177
178 178 177 180 180 180 168 130 80 63 53 31 359 11 9 2 356 359 3 5 6 6 7 8 8 9 11 12 10 12 12 11 13 21 22 23 34 53 83 124 150 155 162 167
178 186 186 182 180 178 166 145 135 95 51 1 355 356 4 359 351 355 1 4 7 9 9 9 8 8 11 11 11 13 15 16 15 17 23 29 32 58 84 108 130 150 154 157